Chehalis, WA
on Thursday, December 13, 2012

Thursday
Previous Day Next Day
Daily Summary
 ActualAverage (KOLM)Record (KOLM)
Temperature
Mean Temperature °F 38°F  
Max Temperature 44°F 44°F 60°F (1952)
Min Temperature 35°F 32°F 12°F (1967)
Degree Days
Heating Degree Days 26 27  
Month to date heating degree days 340  
Since 1 July heating degree days 1785  
Cooling Degree Days 0 0  
Month to date cooling degree days 0  
Year to date cooling degree days 106  
Moisture
Dew Point 37°F   
Average Humidity 90    
Maximum Humidity 100    
Minimum Humidity 76    
Precipitation
Precipitation 0.10 in 0.24 in 2.12 in (2001)
Month to date precipitation 3.37  
Year to date precipitation 45.91  
Wind
Wind Speed 4 mph   
Max Wind Speed 10 mph   
Max Gust Speed mph   
Visibility 7 miles   
Events Rain   

Key: T is trace of precipitation, MM is missing value
Source: NWS Daily Summary
Time(PST)TemperatureDew PointHumidity Pressure Visibility Wind DirectionWind SpeedGust SpeedPrecipitationEvents Conditions
12:15 AM 39.2°F 39.2°F 100% 30.05 in 6.0 miles Calm Calm - N/A   Overcast
12:35 AM 39.2°F 39.2°F 100% 30.05 in 4.0 miles Calm Calm - N/A   Overcast
12:55 AM 39.2°F 39.2°F 100% 30.05 in 1.5 miles Calm Calm - N/A   Overcast
1:15 AM 39.2°F 39.2°F 100% 30.04 in 5.0 miles Calm Calm - N/A   Overcast
1:35 AM 39.2°F 37.4°F 93% 30.05 in 8.0 miles SSW 4.6 mph - N/A   Overcast
1:55 AM 39.2°F 37.4°F 93% 30.05 in 10.0 miles South 3.5 mph - N/A   Overcast
2:15 AM 39.2°F 37.4°F 93% 30.05 in 9.0 miles SSW 3.5 mph - N/A   Overcast
2:35 AM 39.2°F 37.4°F 93% 30.05 in 6.0 miles SSW 3.5 mph - N/A   Overcast
2:55 AM 37.4°F 37.4°F 100% 30.05 in 6.0 miles WSW 3.5 mph - N/A   Overcast
3:15 AM 37.4°F 35.6°F 93% 30.05 in 10.0 miles SW 3.5 mph - N/A   Overcast
3:35 AM 37.4°F 35.6°F 93% 30.06 in 10.0 miles SW 3.5 mph - N/A   Mostly Cloudy
3:55 AM 35.6°F 35.6°F 100% 30.06 in 9.0 miles SSW 4.6 mph - N/A   Partly Cloudy
4:15 AM 35.6°F 35.6°F 100% 30.06 in 9.0 miles South 4.6 mph - N/A   Mostly Cloudy
4:35 AM 35.6°F 33.8°F 93% 30.06 in 8.0 miles Calm Calm - N/A   Mostly Cloudy
4:55 AM 35.6°F 35.6°F 100% 30.06 in 10.0 miles SSW 4.6 mph - N/A   Overcast
5:15 AM 35.6°F 33.8°F 93% 30.07 in 6.0 miles Calm Calm - N/A   Overcast
5:35 AM 35.6°F 35.6°F 100% 30.06 in 8.0 miles Calm Calm - N/A   Overcast
5:55 AM 35.6°F 35.6°F 100% 30.05 in 9.0 miles Calm Calm - N/A   Overcast
6:15 AM 35.6°F 35.6°F 100% 30.05 in 7.0 miles SSW 3.5 mph - N/A   Overcast
6:35 AM 37.4°F 35.6°F 93% 30.05 in 6.0 miles Calm Calm - N/A   Overcast
6:55 AM 35.6°F 35.6°F 100% 30.06 in 6.0 miles Calm Calm - N/A   Overcast
7:35 AM 37.4°F 35.6°F 93% 30.05 in 10.0 miles Calm Calm - N/A   Overcast
7:55 AM 37.4°F 35.6°F 93% 30.05 in 9.0 miles SSW 3.5 mph - N/A   Overcast
8:15 AM 37.4°F 35.6°F 93% 30.04 in 5.0 miles SSW 5.8 mph - N/A   Overcast
8:35 AM 37.4°F 35.6°F 93% 30.04 in 7.0 miles SSW 4.6 mph - N/A   Overcast
8:55 AM 39.2°F 35.6°F 87% 30.04 in 5.0 miles SSW 4.6 mph - N/A   Overcast
9:15 AM 39.2°F 37.4°F 93% 30.03 in 5.0 miles SSW 4.6 mph - N/A   Overcast
9:35 AM 39.2°F 37.4°F 93% 30.03 in 10.0 miles SSW 5.8 mph - N/A   Overcast
9:55 AM 39.2°F 37.4°F 93% 30.03 in 7.0 miles SSW 5.8 mph - N/A   Overcast
10:15 AM 41.0°F 37.4°F 87% 30.02 in 5.0 miles South 5.8 mph - N/A   Overcast
10:35 AM 41.0°F 37.4°F 87% 30.02 in 5.0 miles South 8.1 mph - N/A   Overcast
10:55 AM 41.0°F 37.4°F 87% 30.01 in 7.0 miles South 8.1 mph - N/A   Overcast
11:15 AM 41.0°F 37.4°F 87% 30.01 in 5.0 miles South 8.1 mph - N/A   Haze
11:35 AM 42.8°F 37.4°F 81% 30.00 in 10.0 miles SSE 8.1 mph - N/A   Overcast
11:55 AM 44.6°F 39.2°F 81% 29.99 in 10.0 miles SSE 8.1 mph - N/A   Overcast
12:15 PM 44.6°F 39.2°F 81% 29.99 in 7.0 miles South 8.1 mph - N/A   Overcast
12:35 PM 44.6°F 39.2°F 81% 29.98 in 5.0 miles South 9.2 mph - N/A   Haze
12:55 PM 44.6°F 39.2°F 81% 29.96 in 5.0 miles South 10.4 mph - N/A   Haze
1:15 PM 44.6°F 39.2°F 81% 29.95 in 5.0 miles South 9.2 mph - N/A   Haze
1:35 PM 44.6°F 37.4°F 76% 29.94 in 5.0 miles South 10.4 mph - N/A   Haze
1:55 PM 44.6°F 37.4°F 76% 29.93 in 7.0 miles South 9.2 mph - N/A   Clear
2:15 PM 44.6°F 37.4°F 76% 29.93 in 7.0 miles South 10.4 mph - N/A   Clear
2:35 PM 44.6°F 37.4°F 76% 29.92 in 10.0 miles South 9.2 mph - N/A   Clear
3:15 PM 44.6°F 37.4°F 76% 29.91 in 8.0 miles South 8.1 mph - N/A   Clear
3:35 PM 44.6°F 37.4°F 76% 29.91 in 5.0 miles South 8.1 mph - N/A   Haze
4:55 PM 42.8°F 37.4°F 81% 29.88 in 6.0 miles South 6.9 mph - N/A   Haze
5:15 PM 42.8°F 37.4°F 81% 29.88 in 7.0 miles SSW 6.9 mph - N/A   Overcast
5:35 PM 42.8°F 37.4°F 81% 29.88 in 10.0 miles SSW 5.8 mph - N/A   Overcast
5:55 PM 42.8°F 37.4°F 81% 29.87 in 9.0 miles South 8.1 mph - N/A   Overcast
6:15 PM 42.8°F 37.4°F 81% 29.87 in 8.0 miles SSW 5.8 mph - N/A   Overcast
6:35 PM 41.0°F 37.4°F 87% 29.86 in 5.0 miles South 5.8 mph - 0.01 in Rain Light Rain
6:55 PM 41.0°F 37.4°F 87% 29.86 in 6.0 miles South 5.8 mph - 0.01 in   Overcast
7:15 PM 41.0°F 37.4°F 87% 29.86 in 10.0 miles South 5.8 mph - N/A   Overcast
7:35 PM 41.0°F 37.4°F 87% 29.86 in 7.0 miles South 5.8 mph - N/A Rain Light Rain
7:55 PM 41.0°F 37.4°F 87% 29.85 in 7.0 miles South 5.8 mph - 0.01 in Rain Light Rain
8:15 PM 41.0°F 39.2°F 93% 29.85 in 6.0 miles South 4.6 mph - N/A Rain Light Rain
8:35 PM 41.0°F 39.2°F 93% 29.85 in 6.0 miles South 4.6 mph - 0.01 in Rain Light Rain
8:55 PM 41.0°F 39.2°F 93% 29.85 in 8.0 miles South 5.8 mph - 0.02 in Rain Light Rain
9:15 PM 41.0°F 39.2°F 93% 29.85 in 8.0 miles SSW 4.6 mph - 0.01 in Rain Light Rain
9:35 PM 41.0°F 39.2°F 93% 29.85 in 8.0 miles SSW 3.5 mph - 0.02 in Rain Light Rain
9:55 PM 41.0°F 39.2°F 93% 29.85 in 6.0 miles SSW 4.6 mph - 0.02 in Rain Light Rain
10:15 PM 41.0°F 39.2°F 93% 29.85 in 5.0 miles South 8.1 mph - N/A Rain Light Rain
10:35 PM 41.0°F 39.2°F 93% 29.84 in 7.0 miles South 6.9 mph - N/A Rain Light Rain
10:55 PM 41.0°F 39.2°F 93% 29.84 in 5.0 miles South 9.2 mph - 0.02 in Rain Light Rain
11:15 PM 39.2°F 39.2°F 100% 29.84 in 7.0 miles South 8.1 mph - N/A Rain Light Rain
11:35 PM 39.2°F 39.2°F 100% 29.84 in 7.0 miles South 6.9 mph - 0.01 in Rain Light Rain
11:55 PM 39.2°F 39.2°F 100% 29.84 in 5.0 miles South 6.9 mph - 0.02 in Rain Light Rain
Moon Phase
Dec. 13 Dec. 20 Dec. 28 Jan. 04 Jan. 11
Sunrise:07:48 AM (PST) Moon Rise:08:01 AM (PST)12/13
Sunset:04:24 PM (PST) Moon Set:05:14 PM (PST)12/13

Copyright © 2014 The Weather Underground, Inc.